Regional Weather Roundup
Issued by NWS

Home | Current Version | Previous Version | Graphics & Text | Print | Product List | Glossary Off
Versions: 1 2 3 4 5 6 7 8 9 10 11 12 13 14 15 16 17 18 19 20 21 22 23 24 25 26 27 28 29 30 31 32 33 34 35 36 37 38 39 40 41 42 43 44 45 46 47 48 49 50

000
ASUS43 KTOP 212308
RWRKS

WEATHER ROUNDUP FOR KANSAS
NATIONAL WEATHER SERVICE GOODLAND KS
600 PM CDT THU MAY 21 2015

NOTE:  "FAIR" INDICATES FEW OR NO CLOUDS BELOW 12,000 FEET WITH NO
SIGNIFICANT WEATHER AND/OR OBSTRUCTIONS TO VISIBILITY.

KSZ001>006-013>018-027>032-041>047-220000-
NORTHWEST KANSAS

CITY           SKY/WX    TMP DP  RH WIND       PRES   REMARKS
GOODLAND       CLOUDY    57  44  62 S15       30.18F
HAYS           MOSUNNY   63  39  42 SE7       30.21F
HILL CITY      MOSUNNY   64  42  44 SE12      30.20F
RUSSELL        SUNNY     63  41  44 E9G24     30.20F
$$

KSZ061>065-074>080-084>089-220000-
SOUTHWEST KANSAS

CITY           SKY/WX    TMP DP  RH WIND       PRES   REMARKS
DODGE CITY     PTSUNNY   61  42  49 E9        30.20F
ELKHART          N/A     53  42  66 SE13        N/A
GARDEN CITY    CLOUDY    58  42  55 SE10      30.19F
GREAT BEND     PTSUNNY   63  43  48 E8        30.21F
LIBERAL        CLOUDY    59  43  55 SE6       30.22F
PRATT          PTSUNNY   61  41  48 E7        30.22F
$$

KSZ066>073-081>083-090>101-220000-
SOUTHEAST KANSAS

CITY           SKY/WX    TMP DP  RH WIND       PRES   REMARKS
CHANUTE        SUNNY     64  44  48 VRB5      30.21F
COFFEYVILLE    MOSUNNY   63  47  55 E5        30.22F
HUTCHINSON     MOSUNNY   64  43  46 SE6       30.21F
MEDICINE LODGE   N/A     62  45  53 E9        30.20F
NEWTON         MOSUNNY   63  41  45 SE8       30.24F
PARSONS        MOSUNNY   65  48  54 VRB3      30.23F
WICHITA INTL   PTSUNNY   64  44  48 SE9       30.21F
WICHITA JABRA  MOSUNNY   63  42  46 SE10      30.21F
WICHITA MCCONL MOSUNNY   64  44  47 E8        30.21F
WINFIELD       MOSUNNY   63  45  51 E7        30.22F
$$

KSZ007>012-019>026-033>040-048>060-102>105-220000-
NORTHEAST KANSAS

CITY           SKY/WX    TMP DP  RH WIND       PRES   REMARKS
CONCORDIA      MOSUNNY   65  39  38 S3        30.21F
EMPORIA        MOSUNNY   64  40  41 E8        30.22F
LAWRENCE       SUNNY     69  43  38 N6        30.21F
MANHATTAN      SUNNY     67  40  37 E5        30.21F
MARYSVILLE     SUNNY     66  41  39 CALM      30.21F
OLATHE IND     SUNNY     66  42  41 N3        30.22F
OLATHE EXE     SUNNY     67  42  40 CALM      30.20F
SALINA         SUNNY     65  40  39 E5        30.22F
TOPEKA BILLARD SUNNY     68  43  40 N3        30.21F
TOPEKA FORBES  SUNNY     68  44  42 NE6       30.21F
$$



USA.gov is the U.S. government's official web portal to all federal, state and local government web resources and services.